| time (UTC) | temp F | wind direction | speed knots | gust knots | rain 1hr in | rain 24hr in | rain mn in | humidity % | barometer mb |
| 20260507015603 | 45 | 0 | 0.0 | 0.0 | 0.00 | 0.57 | 0.00 | 87 | 1012.7 |
| 20260507015057 | 45 | 0 | 0.0 | 0.0 | 0.00 | 0.57 | 0.00 | 87 | 1012.7 |
| 20260507014621 | 45 | 0 | 0.0 | 0.0 | 0.00 | 0.57 | 0.00 | 87 | 1012.5 |
| 20260507014057 | 45 | 0 | 0.0 | 0.0 | 0.00 | 0.57 | 0.00 | 87 | 1012.5 |
| 20260507013557 | 45 | 0 | 0.0 | 2.6 | 0.00 | 0.57 | 0.00 | 86 | 1012.5 |
| 20260507013102 | 45 | 0 | 0.0 | 2.6 | 0.00 | 0.57 | 0.00 | 86 | 1012.4 |
| 20260507012556 | 46 | 0 | 0.0 | 2.6 | 0.00 | 0.57 | 0.00 | 86 | 1012.4 |
| 20260507012057 | 46 | 0 | 0.0 | 0.0 | 0.00 | 0.57 | 0.00 | 86 | 1012.4 |
| 20260507011602 | 46 | 0 | 0.0 | 2.6 | 0.00 | 0.57 | 0.00 | 86 | 1012.4 |
| 20260507011056 | 46 | 0 | 0.0 | 2.6 | 0.00 | 0.57 | 0.00 | 86 | 1012.3 |
| 20260507010556 | 46 | 256 | 0.9 | 2.6 | 0.00 | 0.57 | 0.00 | 86 | 1012.3 |
| 20260507010055 | 46 | 256 | 0.0 | 0.0 | 0.00 | 0.57 | 0.00 | 86 | 1012.3 |
| 20260507005556 | 46 | 0 | 0.0 | 0.0 | 0.00 | 0.62 | 0.00 | 86 | 1012.2 |
| 20260507005057 | 46 | 0 | 0.0 | 0.0 | 0.00 | 0.62 | 0.00 | 86 | 1012.2 |
| 20260507004558 | 46 | 0 | 0.0 | 0.0 | 0.00 | 0.62 | 0.00 | 86 | 1012.2 |
| 20260507004057 | 46 | 0 | 0.0 | 0.0 | 0.00 | 0.62 | 0.00 | 86 | 1012.2 |
| 20260507003557 | 46 | 0 | 0.0 | 0.0 | 0.00 | 0.62 | 0.00 | 86 | 1012.2 |
| 20260507003056 | 46 | 0 | 0.0 | 0.0 | 0.00 | 0.62 | 0.00 | 85 | 1012.0 |
| 20260507002556 | 47 | 0 | 0.0 | 0.0 | 0.00 | 0.62 | 0.00 | 85 | 1012.0 |
| 20260507002057 | 47 | 0 | 0.0 | 0.0 | 0.00 | 0.62 | 0.00 | 85 | 1012.0 |
| 20260507001605 | 47 | 0 | 0.0 | 0.0 | 0.00 | 0.62 | 0.00 | 85 | 1012.0 |
| 20260507001056 | 47 | 0 | 0.0 | 0.0 | 0.00 | 0.62 | 0.00 | 85 | 1011.9 |
| 20260507000600 | 47 | 0 | 0.0 | 0.0 | 0.00 | 0.62 | 0.00 | 85 | 1012.0 |
| 20260507000124 | 47 | 0 | 0.0 | 0.0 | 0.00 | 0.62 | 0.00 | 85 | 1011.8 |
| 20260506235557 | 48 | 0 | 0.0 | 0.0 | 0.00 | 0.62 | 0.00 | 85 | 1011.9 |
| 20260506235102 | 48 | 0 | 0.0 | 0.0 | 0.00 | 0.62 | 0.00 | 85 | 1011.8 |
| 20260506234618 | 48 | 0 | 0.0 | 3.5 | 0.00 | 0.62 | 0.00 | 84 | 1011.9 |
| 20260506234058 | 48 | 0 | 0.0 | 3.5 | 0.00 | 0.62 | 0.00 | 84 | 1011.9 |
| 20260506233559 | 48 | 256 | 0.0 | 3.5 | 0.00 | 0.62 | 0.00 | 84 | 1011.8 |
| 20260506233055 | 48 | 256 | 0.0 | 0.0 | 0.00 | 0.62 | 0.00 | 84 | 1011.9 |
| 20260506232556 | 48 | 0 | 0.0 | 0.0 | 0.00 | 0.62 | 0.00 | 84 | 1011.9 |
| 20260506232056 | 48 | 0 | 0.0 | 0.0 | 0.00 | 0.62 | 0.00 | 84 | 1011.9 |
| 20260506231558 | 48 | 0 | 0.0 | 0.0 | 0.00 | 0.62 | 0.00 | 84 | 1011.9 |
| 20260506231059 | 48 | 0 | 0.0 | 5.2 | 0.00 | 0.62 | 0.00 | 84 | 1011.9 |
| 20260506230558 | 49 | 0 | 0.9 | 5.2 | 0.00 | 0.62 | 0.00 | 85 | 1012.0 |
| 20260506225558 | 49 | 0 | 0.0 | 0.0 | 0.00 | 0.62 | 0.00 | 86 | 1012.0 |
| 20260506225056 | 49 | 0 | 0.0 | 0.0 | 0.00 | 0.62 | 0.00 | 85 | 1012.1 |
| 20260506224556 | 49 | 0 | 0.0 | 4.3 | 0.00 | 0.62 | 0.00 | 85 | 1012.0 |
| 20260506224055 | 49 | 0 | 0.0 | 4.3 | 0.00 | 0.62 | 0.00 | 85 | 1012.1 |
| 20260506223601 | 49 | 0 | 0.0 | 3.5 | 0.00 | 0.62 | 0.00 | 85 | 1012.0 |
| 20260506223100 | 49 | 0 | 0.0 | 3.5 | 0.00 | 0.62 | 0.00 | 85 | 1011.9 |
| 20260506222556 | 49 | 0 | 0.0 | 3.5 | 0.00 | 0.62 | 0.00 | 85 | 1011.9 |
| 20260506222059 | 49 | 0 | 0.0 | 0.0 | 0.00 | 0.62 | 0.00 | 85 | 1011.9 |
| 20260506221604 | 49 | 0 | 0.0 | 0.0 | 0.00 | 0.62 | 0.00 | 85 | 1011.9 |
| 20260506221056 | 49 | 0 | 0.0 | 0.0 | 0.00 | 0.62 | 0.00 | 85 | 1012.0 |
| 20260506220557 | 49 | 0 | 0.0 | 0.0 | 0.00 | 0.62 | 0.00 | 85 | 1011.8 |
| 20260506220057 | 49 | 0 | 0.0 | 0.0 | 0.00 | 0.62 | 0.00 | 85 | 1011.7 |
| 20260506215557 | 50 | 0 | 0.0 | 0.0 | 0.00 | 0.62 | 0.62 | 85 | 1011.8 |
| 20260506215058 | 50 | 0 | 0.0 | 0.0 | 0.00 | 0.62 | 0.62 | 84 | 1011.7 |
| 20260506214600 | 50 | 0 | 0.0 | 0.0 | 0.00 | 0.62 | 0.62 | 84 | 1011.6 |
| 20260506214057 | 50 | 0 | 0.0 | 0.0 | 0.00 | 0.62 | 0.62 | 84 | 1011.6 |
| 20260506213559 | 50 | 0 | 0.0 | 0.0 | 0.00 | 0.62 | 0.62 | 83 | 1011.5 |
| 20260506213100 | 50 | 0 | 0.0 | 0.0 | 0.00 | 0.62 | 0.62 | 83 | 1011.6 |
| 20260506212556 | 51 | 0 | 0.0 | 0.0 | 0.00 | 0.62 | 0.62 | 83 | 1011.5 |
| 20260506212056 | 51 | 0 | 0.0 | 0.0 | 0.00 | 0.62 | 0.62 | 82 | 1011.6 |
| 20260506211559 | 51 | 0 | 0.0 | 0.0 | 0.00 | 0.62 | 0.62 | 82 | 1011.5 |
| 20260506211100 | 51 | 0 | 0.0 | 0.0 | 0.00 | 0.62 | 0.62 | 82 | 1011.5 |
| 20260506210555 | 51 | 0 | 0.0 | 0.0 | 0.00 | 0.62 | 0.62 | 81 | 1011.3 |
| 20260506210055 | 51 | 0 | 0.0 | 2.6 | 0.00 | 0.62 | 0.62 | 81 | 1011.3 |
| 20260506205557 | 51 | 0 | 0.0 | 2.6 | 0.00 | 0.62 | 0.62 | 80 | 1011.3 |
| 20260506205056 | 51 | 238 | 0.0 | 2.6 | 0.00 | 0.62 | 0.62 | 80 | 1011.3 |
| 20260506204556 | 52 | 0 | 0.0 | 0.0 | 0.00 | 0.62 | 0.62 | 81 | 1011.2 |
| 20260506204145 | 52 | 0 | 0.0 | 0.0 | 0.00 | 0.62 | 0.62 | 81 | 1011.2 |
| 20260506203556 | 52 | 0 | 0.0 | 0.0 | 0.00 | 0.62 | 0.62 | 81 | 1011.1 |
| 20260506203055 | 52 | 0 | 0.0 | 0.0 | 0.00 | 0.62 | 0.62 | 80 | 1011.0 |
| 20260506202557 | 53 | 0 | 0.0 | 0.0 | 0.00 | 0.62 | 0.62 | 80 | 1010.9 |
| 20260506202058 | 53 | 0 | 0.0 | 0.0 | 0.00 | 0.62 | 0.62 | 80 | 1010.7 |
| 20260506201557 | 53 | 0 | 0.0 | 0.0 | 0.00 | 0.62 | 0.62 | 79 | 1010.6 |
| 20260506201057 | 53 | 0 | 0.0 | 0.0 | 0.00 | 0.62 | 0.62 | 79 | 1010.4 |
| 20260506200557 | 53 | 0 | 0.0 | 0.0 | 0.00 | 0.62 | 0.62 | 79 | 1010.4 |
| 20260506200057 | 54 | 0 | 0.0 | 3.5 | 0.00 | 0.62 | 0.62 | 80 | 1010.1 |
| 20260506195557 | 54 | 0 | 0.9 | 4.3 | 0.00 | 0.62 | 0.62 | 79 | 1010.2 |
| 20260506195058 | 54 | 223 | 0.9 | 4.3 | 0.00 | 0.62 | 0.62 | 80 | 1010.1 |
| 20260506194600 | 54 | 224 | 0.9 | 4.3 | 0.00 | 0.62 | 0.62 | 80 | 1009.9 |
| 20260506194059 | 54 | 225 | 0.0 | 0.0 | 0.00 | 0.62 | 0.62 | 79 | 1009.9 |
| 20260506193557 | 54 | 0 | 0.0 | 0.9 | 0.00 | 0.62 | 0.62 | 78 | 1009.7 |
| 20260506193059 | 54 | 0 | 0.0 | 0.9 | 0.00 | 0.62 | 0.62 | 76 | 1009.6 |
| 20260506192558 | 54 | 0 | 0.0 | 0.0 | 0.00 | 0.62 | 0.62 | 76 | 1009.5 |
| 20260506192057 | 55 | 0 | 0.0 | 0.0 | 0.00 | 0.62 | 0.62 | 75 | 1009.5 |
| 20260506191601 | 55 | 0 | 0.0 | 7.0 | 0.00 | 0.62 | 0.62 | 73 | 1009.4 |
| 20260506191057 | 55 | 0 | 0.0 | 7.0 | 0.00 | 0.62 | 0.62 | 72 | 1009.2 |
| 20260506190558 | 55 | 0 | 0.0 | 6.1 | 0.00 | 0.62 | 0.62 | 70 | 1009.1 |
| 20260506190056 | 56 | 0 | 0.0 | 4.3 | 0.00 | 0.62 | 0.62 | 70 | 1008.9 |
| 20260506185559 | 56 | 250 | 0.0 | 4.3 | 0.00 | 0.62 | 0.62 | 70 | 1008.9 |
| 20260506185057 | 56 | 259 | 0.0 | 8.7 | 0.00 | 0.62 | 0.62 | 72 | 1008.7 |
| 20260506184559 | 56 | 0 | 0.0 | 8.7 | 0.00 | 0.62 | 0.62 | 73 | 1008.8 |
| 20260506184059 | 56 | 238 | 2.6 | 11.3 | 0.00 | 0.62 | 0.62 | 71 | 1008.6 |
| 20260506183559 | 56 | 243 | 3.5 | 11.3 | 0.00 | 0.62 | 0.62 | 71 | 1008.5 |
| 20260506183104 | 56 | 236 | 4.3 | 7.8 | 0.00 | 0.62 | 0.62 | 72 | 1008.3 |
| 20260506182557 | 56 | 253 | 1.7 | 6.1 | 0.00 | 0.62 | 0.62 | 74 | 1008.3 |
| 20260506182057 | 57 | 253 | 2.6 | 7.0 | 0.00 | 0.62 | 0.62 | 71 | 1008.3 |
| 20260506181606 | 57 | 250 | 2.6 | 7.0 | 0.00 | 0.62 | 0.62 | 69 | 1008.2 |
| 20260506181055 | 58 | 360 | 0.9 | 7.0 | 0.00 | 0.62 | 0.62 | 70 | 1008.0 |
| 20260506180559 | 58 | 255 | 2.6 | 7.0 | 0.00 | 0.62 | 0.62 | 69 | 1007.9 |
| 20260506180058 | 59 | 248 | 0.9 | 7.0 | 0.00 | 0.62 | 0.62 | 69 | 1007.9 |
| 20260506175555 | 59 | 251 | 3.5 | 7.8 | 0.00 | 0.62 | 0.62 | 68 | 1007.7 |
| 20260506175056 | 60 | 0 | 2.6 | 7.8 | 0.00 | 0.62 | 0.62 | 69 | 1007.7 |
| 20260506174558 | 60 | 0 | 2.6 | 7.0 | 0.00 | 0.62 | 0.62 | 68 | 1007.7 |
| 20260506174057 | 61 | 252 | 0.0 | 3.5 | 0.00 | 0.62 | 0.62 | 73 | 1007.6 |
| 20260506173555 | 61 | 0 | 0.0 | 0.0 | 0.00 | 0.62 | 0.62 | 74 | 1007.7 |
| 20260506173126 | 61 | 0 | 0.0 | 6.1 | 0.00 | 0.62 | 0.62 | 74 | 1007.6 |
| 20260506172555 | 61 | 0 | 0.9 | 6.1 | 0.00 | 0.62 | 0.62 | 73 | 1007.4 |
| 20260506172058 | 62 | 0 | 2.6 | 6.1 | 0.00 | 0.62 | 0.62 | 72 | 1007.4 |
| 20260506171602 | 62 | 259 | 0.9 | 6.1 | 0.00 | 0.62 | 0.62 | 72 | 1007.3 |
| 20260506171058 | 63 | 251 | 0.9 | 6.1 | 0.00 | 0.62 | 0.62 | 72 | 1007.3 |
| 20260506170556 | 63 | 248 | 1.7 | 4.3 | 0.00 | 0.62 | 0.62 | 70 | 1007.2 |
| 20260506170107 | 63 | 242 | 0.9 | 3.5 | 0.00 | 0.62 | 0.62 | 72 | 1007.2 |
| 20260506165555 | 63 | 0 | 0.0 | 0.0 | 0.00 | 0.62 | 0.62 | 69 | 1007.0 |
| 20260506165056 | 63 | 0 | 0.0 | 0.0 | 0.00 | 0.62 | 0.62 | 70 | 1007.0 |
| 20260506164558 | 63 | 0 | 0.0 | 0.0 | 0.00 | 0.62 | 0.62 | 70 | 1007.0 |
| 20260506164057 | 64 | 0 | 0.0 | 0.0 | 0.00 | 0.62 | 0.62 | 69 | 1006.9 |
| 20260506163557 | 64 | 0 | 0.0 | 2.6 | 0.00 | 0.62 | 0.62 | 68 | 1006.9 |
| 20260506163059 | 64 | 0 | 0.0 | 7.8 | 0.00 | 0.62 | 0.62 | 67 | 1006.9 |
| 20260506162557 | 64 | 0 | 0.9 | 7.8 | 0.00 | 0.62 | 0.62 | 67 | 1006.7 |
| 20260506162057 | 64 | 0 | 0.9 | 7.8 | 0.00 | 0.62 | 0.62 | 66 | 1006.6 |
| 20260506161600 | 64 | 178 | 2.6 | 8.7 | 0.00 | 0.62 | 0.62 | 65 | 1006.5 |
| 20260506161055 | 64 | 143 | 3.5 | 8.7 | 0.00 | 0.62 | 0.62 | 67 | 1006.6 |
| 20260506160558 | 63 | 165 | 3.5 | 8.7 | 0.00 | 0.62 | 0.62 | 68 | 1006.6 |
| 20260506160100 | 63 | 175 | 1.7 | 7.8 | 0.00 | 0.62 | 0.62 | 69 | 1006.7 |
| 20260506155558 | 63 | 0 | 2.6 | 6.1 | 0.00 | 0.62 | 0.62 | 72 | 1006.6 |
| 20260506155102 | 62 | 180 | 0.0 | 6.1 | 0.00 | 0.62 | 0.62 | 73 | 1006.9 |
| 20260506154612 | 62 | 0 | 0.9 | 6.1 | 0.00 | 0.62 | 0.62 | 72 | 1006.9 |
| 20260506154056 | 62 | 0 | 0.9 | 8.7 | 0.00 | 0.62 | 0.62 | 73 | 1006.9 |
| 20260506153558 | 62 | 0 | 2.6 | 8.7 | 0.00 | 0.62 | 0.62 | 73 | 1006.9 |
| 20260506153056 | 62 | 185 | 1.7 | 7.8 | 0.00 | 0.62 | 0.62 | 73 | 1006.9 |
| 20260506152557 | 62 | 0 | 2.6 | 5.2 | 0.00 | 0.62 | 0.62 | 74 | 1007.0 |
| 20260506152057 | 62 | 192 | 1.7 | 7.0 | 0.00 | 0.62 | 0.62 | 75 | 1007.0 |
| 20260506151555 | 62 | 0 | 3.5 | 7.0 | 0.01 | 0.62 | 0.62 | 76 | 1006.9 |
| 20260506151055 | 62 | 171 | 0.0 | 1.7 | 0.01 | 0.62 | 0.62 | 77 | 1007.0 |
| 20260506150556 | 63 | 0 | 0.0 | 4.3 | 0.01 | 0.62 | 0.62 | 77 | 1007.0 |
| 20260506150057 | 62 | 0 | 0.0 | 5.2 | 0.01 | 0.62 | 0.62 | 77 | 1007.1 |
| 20260506145558 | 62 | 0 | 0.0 | 7.8 | 0.01 | 0.62 | 0.62 | 78 | 1007.0 |
| 20260506145058 | 62 | 156 | 3.5 | 7.8 | 0.01 | 0.62 | 0.62 | 79 | 1007.2 |
| 20260506144607 | 62 | 173 | 1.7 | 7.0 | 0.01 | 0.62 | 0.62 | 80 | 1007.2 |
| 20260506144101 | 62 | 177 | 0.0 | 6.1 | 0.01 | 0.62 | 0.62 | 80 | 1007.1 |
| 20260506143600 | 61 | 0 | 0.9 | 6.1 | 0.01 | 0.62 | 0.62 | 81 | 1007.2 |
| 20260506143057 | 61 | 0 | 0.0 | 10.4 | 0.01 | 0.62 | 0.62 | 78 | 1007.3 |
| 20260506142556 | 61 | 0 | 0.9 | 11.3 | 0.00 | 0.62 | 0.62 | 77 | 1007.4 |
| 20260506142057 | 62 | 0 | 3.5 | 11.3 | 0.00 | 0.62 | 0.62 | 76 | 1007.2 |
| 20260506141601 | 62 | 169 | 1.7 | 8.7 | 0.00 | 0.61 | 0.61 | 74 | 1007.3 |
| 20260506141058 | 63 | 0 | 0.0 | 8.7 | 0.00 | 0.61 | 0.61 | 72 | 1007.3 |
| 20260506140600 | 63 | 156 | 0.9 | 8.7 | 0.00 | 0.61 | 0.61 | 70 | 1007.2 |
| 20260506140057 | 63 | 155 | 3.5 | 9.6 | 0.00 | 0.61 | 0.61 | 69 | 1007.2 |
| 20260506135559 | 64 | 0 | 2.6 | 9.6 | 0.00 | 0.61 | 0.61 | 69 | 1007.3 |
| 20260506135057 | 64 | 123 | 2.6 | 8.7 | 0.00 | 0.61 | 0.61 | 69 | 1007.2 |
| 20260506134554 | 64 | 153 | 1.7 | 8.7 | 0.00 | 0.61 | 0.61 | 70 | 1007.2 |
| 20260506134102 | 65 | 0 | 0.0 | 7.0 | 0.00 | 0.61 | 0.61 | 69 | 1007.2 |
| 20260506133558 | 64 | 134 | 0.9 | 8.7 | 0.00 | 0.61 | 0.61 | 68 | 1007.2 |
| 20260506133119 | 65 | 126 | 0.0 | 8.7 | 0.00 | 0.61 | 0.61 | 70 | 1007.3 |
| 20260506132557 | 65 | 103 | 1.7 | 8.7 | 0.00 | 0.61 | 0.61 | 68 | 1007.2 |
| 20260506132057 | 65 | 138 | 1.7 | 8.7 | 0.00 | 0.61 | 0.61 | 67 | 1007.3 |
| 20260506131555 | 65 | 0 | 0.0 | 9.6 | 0.00 | 0.61 | 0.61 | 67 | 1007.4 |
| 20260506131056 | 66 | 83 | 0.9 | 11.3 | 0.00 | 0.61 | 0.61 | 66 | 1007.3 |
| 20260506130558 | 66 | 0 | 5.2 | 11.3 | 0.00 | 0.61 | 0.61 | 65 | 1007.3 |
| 20260506130121 | 65 | 0 | 1.7 | 10.4 | 0.00 | 0.61 | 0.61 | 68 | 1007.2 |
| 20260506125557 | 65 | 97 | 4.3 | 10.4 | 0.00 | 0.61 | 0.61 | 67 | 1007.2 |
| 20260506125055 | 65 | 156 | 1.7 | 7.8 | 0.00 | 0.61 | 0.61 | 67 | 1007.4 |
| 20260506124555 | 65 | 145 | 1.7 | 7.8 | 0.00 | 0.61 | 0.61 | 68 | 1007.3 |
| 20260506124056 | 64 | 0 | 0.9 | 7.8 | 0.00 | 0.61 | 0.61 | 69 | 1007.3 |
| 20260506123558 | 64 | 0 | 1.7 | 7.0 | 0.00 | 0.61 | 0.61 | 71 | 1007.2 |
| 20260506123058 | 63 | 0 | 0.0 | 6.1 | 0.00 | 0.61 | 0.61 | 70 | 1007.2 |
| 20260506122559 | 63 | 0 | 0.9 | 8.7 | 0.00 | 0.61 | 0.61 | 70 | 1007.2 |
| 20260506122056 | 63 | 170 | 0.9 | 8.7 | 0.00 | 0.61 | 0.61 | 70 | 1007.1 |
| 20260506121557 | 63 | 0 | 2.6 | 11.3 | 0.00 | 0.61 | 0.61 | 69 | 1007.0 |
| 20260506121058 | 63 | 0 | 3.5 | 11.3 | 0.00 | 0.61 | 0.61 | 69 | 1006.9 |
| 20260506120559 | 64 | 127 | 6.1 | 10.4 | 0.00 | 0.61 | 0.61 | 68 | 1006.9 |
| 20260506120058 | 64 | 98 | 2.6 | 9.6 | 0.00 | 0.61 | 0.61 | 67 | 1006.9 |
| 20260506115602 | 65 | 0 | 3.5 | 13.9 | 0.00 | 0.61 | 0.61 | 65 | 1007.0 |
| 20260506115056 | 66 | 119 | 4.3 | 13.9 | 0.00 | 0.61 | 0.61 | 65 | 1006.8 |
| 20260506114604 | 66 | 125 | 5.2 | 13.9 | 0.00 | 0.61 | 0.61 | 65 | 1007.0 |
| 20260506114055 | 66 | 146 | 4.3 | 12.2 | 0.00 | 0.61 | 0.61 | 66 | 1006.9 |
| 20260506113557 | 66 | 171 | 3.5 | 9.6 | 0.00 | 0.61 | 0.61 | 65 | 1007.0 |
| 20260506113056 | 66 | 155 | 3.5 | 9.6 | 0.00 | 0.61 | 0.61 | 66 | 1006.9 |
| 20260506112555 | 66 | 150 | 2.6 | 9.6 | 0.00 | 0.61 | 0.61 | 66 | 1006.8 |
| 20260506112100 | 66 | 129 | 0.9 | 9.6 | 0.00 | 0.61 | 0.61 | 68 | 1006.9 |
| 20260506111557 | 65 | 139 | 2.6 | 10.4 | 0.00 | 0.61 | 0.61 | 68 | 1006.9 |
| 20260506111056 | 65 | 167 | 3.5 | 10.4 | 0.00 | 0.61 | 0.61 | 66 | 1007.0 |
| 20260506110557 | 65 | 154 | 1.7 | 8.7 | 0.00 | 0.61 | 0.61 | 63 | 1007.1 |
| 20260506110057 | 65 | 159 | 1.7 | 7.8 | 0.00 | 0.61 | 0.61 | 65 | 1007.1 |
| 20260506105558 | 65 | 157 | 3.5 | 7.8 | 0.00 | 0.61 | 0.61 | 66 | 1007.3 |
| 20260506105056 | 65 | 125 | 2.6 | 7.8 | 0.00 | 0.61 | 0.61 | 66 | 1007.3 |
| 20260506104627 | 65 | 0 | 0.9 | 6.1 | 0.00 | 0.61 | 0.61 | 66 | 1007.5 |
| 20260506104056 | 65 | 65 | 0.0 | 6.1 | 0.00 | 0.61 | 0.61 | 65 | 1007.5 |
| 20260506103556 | 65 | 0 | 0.9 | 5.2 | 0.00 | 0.61 | 0.61 | 66 | 1007.6 |
| 20260506103100 | 64 | 0 | 1.7 | 5.2 | 0.00 | 0.61 | 0.61 | 70 | 1007.5 |
| 20260506102556 | 64 | 173 | 0.0 | 5.2 | 0.00 | 0.61 | 0.61 | 70 | 1007.6 |
| 20260506102057 | 63 | 0 | 0.0 | 2.6 | 0.00 | 0.61 | 0.61 | 70 | 1007.6 |
| 20260506101558 | 63 | 0 | 0.0 | 2.6 | 0.00 | 0.61 | 0.61 | 68 | 1007.6 |
| 20260506101057 | 63 | 0 | 0.0 | 3.5 | 0.00 | 0.61 | 0.61 | 70 | 1007.7 |
| 20260506100557 | 63 | 0 | 0.9 | 5.2 | 0.00 | 0.61 | 0.61 | 71 | 1007.8 |
| 20260506100057 | 62 | 0 | 0.0 | 5.2 | 0.00 | 0.61 | 0.61 | 72 | 1007.8 |
| 20260506095559 | 62 | 0 | 0.0 | 5.2 | 0.00 | 0.62 | 0.61 | 76 | 1007.8 |
| 20260506095056 | 62 | 153 | 0.0 | 2.6 | 0.00 | 0.62 | 0.61 | 75 | 1007.8 |
| 20260506094555 | 61 | 0 | 0.0 | 2.6 | 0.00 | 0.62 | 0.61 | 76 | 1008.0 |
| 20260506094057 | 60 | 0 | 0.0 | 0.0 | 0.00 | 0.62 | 0.61 | 77 | 1008.0 |
| 20260506093558 | 60 | 0 | 0.0 | 0.0 | 0.00 | 0.62 | 0.61 | 80 | 1008.0 |
| 20260506093056 | 59 | 0 | 0.0 | 3.5 | 0.00 | 0.62 | 0.61 | 79 | 1008.1 |
| 20260506092600 | 59 | 0 | 0.0 | 3.5 | 0.00 | 0.62 | 0.61 | 82 | 1008.1 |
| 20260506092057 | 58 | 0 | 0.0 | 4.3 | 0.00 | 0.62 | 0.61 | 85 | 1008.3 |
| 20260506091601 | 58 | 0 | 0.0 | 4.3 | 0.00 | 0.62 | 0.61 | 85 | 1008.3 |
| 20260506091057 | 57 | 0 | 0.0 | 3.5 | 0.00 | 0.62 | 0.61 | 88 | 1008.3 |
| 20260506090557 | 56 | 0 | 0.0 | 0.0 | 0.00 | 0.62 | 0.61 | 88 | 1008.5 |
| 20260506090055 | 56 | 0 | 0.0 | 0.0 | 0.00 | 0.62 | 0.61 | 88 | 1008.6 |
| 20260506085557 | 55 | 0 | 0.0 | 0.0 | 0.00 | 0.62 | 0.61 | 89 | 1008.6 |
| 20260506085057 | 55 | 0 | 0.0 | 0.0 | 0.00 | 0.62 | 0.61 | 89 | 1008.6 |
| 20260506084557 | 55 | 0 | 0.0 | 0.0 | 0.00 | 0.62 | 0.61 | 90 | 1008.6 |
| 20260506084057 | 54 | 0 | 0.0 | 0.0 | 0.00 | 0.62 | 0.61 | 90 | 1008.7 |
| 20260506083555 | 54 | 0 | 0.0 | 0.0 | 0.00 | 0.62 | 0.61 | 90 | 1008.7 |
| 20260506083056 | 54 | 0 | 0.0 | 0.0 | 0.00 | 0.62 | 0.61 | 90 | 1008.7 |
| 20260506082555 | 54 | 0 | 0.0 | 0.0 | 0.00 | 0.62 | 0.61 | 91 | 1008.7 |
| 20260506082057 | 54 | 0 | 0.0 | 0.0 | 0.00 | 0.62 | 0.61 | 91 | 1008.8 |
| 20260506081600 | 54 | 0 | 0.0 | 0.0 | 0.00 | 0.62 | 0.61 | 91 | 1008.7 |
| 20260506081058 | 54 | 0 | 0.0 | 1.7 | 0.00 | 0.62 | 0.61 | 92 | 1008.7 |
| 20260506080557 | 54 | 0 | 0.0 | 2.6 | 0.00 | 0.62 | 0.61 | 92 | 1008.7 |
| 20260506080118 | 54 | 116 | 0.0 | 2.6 | 0.00 | 0.62 | 0.61 | 92 | 1008.7 |
| 20260506073109 | 53 | 0 | 0.0 | 4.3 | 0.00 | 0.62 | 0.61 | 92 | 1008.5 |
| 20260506072558 | 53 | 0 | 0.0 | 7.0 | 0.00 | 0.62 | 0.61 | 92 | 1008.5 |
| 20260506072054 | 53 | 0 | 0.0 | 7.8 | 0.00 | 0.62 | 0.61 | 92 | 1008.5 |
| 20260506071624 | 53 | 190 | 3.5 | 7.8 | 0.00 | 0.62 | 0.61 | 92 | 1008.5 |
| 20260506071055 | 53 | 187 | 0.0 | 6.1 | 0.00 | 0.62 | 0.61 | 92 | 1008.4 |
| 20260506070555 | 53 | 0 | 0.9 | 7.8 | 0.00 | 0.62 | 0.61 | 92 | 1008.3 |
| 20260506062057 | 52 | 180 | 0.0 | 4.3 | 0.01 | 0.61 | 0.60 | 93 | 1008.7 |
| 20260506061558 | 52 | 0 | 0.0 | 6.1 | 0.03 | 0.61 | 0.60 | 93 | 1008.8 |
| 20260506061056 | 51 | 180 | 0.0 | 6.1 | 0.03 | 0.61 | 0.60 | 92 | 1009.0 |
| 20260506060558 | 51 | 196 | 2.6 | 6.1 | 0.04 | 0.61 | 0.60 | 92 | 1009.0 |
| 20260506051055 | 52 | 0 | 0.9 | 7.8 | 0.18 | 0.57 | 0.56 | 92 | 1009.1 |
| 20260506050555 | 52 | 168 | 1.7 | 7.8 | 0.22 | 0.56 | 0.55 | 92 | 1009.1 |
| 20260506045056 | 52 | 0 | 0.0 | 7.0 | 0.25 | 0.61 | 0.53 | 92 | 1009.0 |
| 20260506044609 | 52 | 0 | 0.0 | 8.7 | 0.25 | 0.59 | 0.51 | 92 | 1009.0 |
| 20260506044055 | 52 | 0 | 1.7 | 8.7 | 0.27 | 0.59 | 0.51 | 92 | 1009.0 |
| 20260506043557 | 52 | 128 | 0.9 | 6.1 | 0.26 | 0.56 | 0.48 | 92 | 1009.0 |
| 20260506043058 | 52 | 0 | 0.0 | 6.1 | 0.25 | 0.55 | 0.47 | 92 | 1009.0 |
| 20260506042556 | 52 | 148 | 0.0 | 7.0 | 0.25 | 0.54 | 0.46 | 92 | 1009.0 |
| 20260506042055 | 52 | 112 | 0.0 | 7.0 | 0.25 | 0.53 | 0.45 | 92 | 1009.1 |
| 20260506041555 | 52 | 0 | 0.9 | 7.0 | 0.22 | 0.49 | 0.41 | 92 | 1009.1 |
| 20260506041055 | 52 | 0 | 0.0 | 6.1 | 0.19 | 0.44 | 0.37 | 92 | 1009.1 |
| 20260506040554 | 52 | 0 | 0.9 | 6.1 | 0.16 | 0.41 | 0.33 | 92 | 1009.3 |
| 20260506040058 | 52 | 176 | 0.9 | 5.2 | 0.14 | 0.39 | 0.31 | 92 | 1009.1 |
| 20260506035554 | 52 | 0 | 0.0 | 7.8 | 0.11 | 0.45 | 0.29 | 92 | 1009.2 |
| 20260506035054 | 52 | 0 | 0.0 | 7.8 | 0.11 | 0.44 | 0.27 | 92 | 1009.1 |
| 20260506034600 | 52 | 189 | 1.7 | 6.1 | 0.10 | 0.42 | 0.25 | 92 | 1009.2 |
| 20260506034055 | 52 | 182 | 1.7 | 5.2 | 0.08 | 0.40 | 0.23 | 92 | 1009.2 |
| 20260506033556 | 52 | 0 | 0.0 | 0.0 | 0.08 | 0.38 | 0.22 | 92 | 1009.4 |
| 20260506033054 | 52 | 0 | 0.0 | 0.0 | 0.09 | 0.37 | 0.21 | 92 | 1009.4 |
| 20260506032555 | 52 | 0 | 0.0 | 0.0 | 0.09 | 0.37 | 0.20 | 92 | 1009.4 |
| 20260506032055 | 52 | 0 | 0.0 | 6.1 | 0.11 | 0.36 | 0.19 | 92 | 1009.4 |
| 20260506031557 | 52 | 0 | 0.0 | 6.1 | 0.11 | 0.35 | 0.18 | 92 | 1009.5 |
| 20260506031058 | 52 | 173 | 0.9 | 7.0 | 0.11 | 0.33 | 0.17 | 91 | 1009.7 |
| 20260506030555 | 52 | 180 | 2.6 | 7.0 | 0.11 | 0.33 | 0.17 | 91 | 1009.6 |
| 20260506030100 | 52 | 175 | 0.0 | 7.0 | 0.11 | 0.33 | 0.17 | 91 | 1009.8 |
| 20260506025555 | 52 | 0 | 0.0 | 7.0 | 0.11 | 0.39 | 0.17 | 91 | 1009.9 |
| 20260506025054 | 52 | 189 | 1.7 | 4.3 | 0.09 | 0.37 | 0.15 | 91 | 1010.1 |
| 20260506024555 | 52 | 0 | 0.0 | 3.5 | 0.09 | 0.37 | 0.15 | 91 | 1010.2 |
| 20260506024058 | 52 | 0 | 0.0 | 3.5 | 0.08 | 0.37 | 0.14 | 91 | 1010.2 |
| 20260506023556 | 52 | 0 | 0.0 | 3.5 | 0.07 | 0.35 | 0.13 | 91 | 1010.2 |
| 20260506023058 | 52 | 0 | 0.0 | 5.2 | 0.05 | 0.33 | 0.11 | 91 | 1010.2 |
| 20260506022557 | 52 | 0 | 1.7 | 5.2 | 0.04 | 0.33 | 0.11 | 91 | 1010.3 |
| 20260506022053 | 52 | 0 | 0.0 | 0.0 | 0.01 | 0.29 | 0.07 | 91 | 1010.2 |
| 20260506021559 | 52 | 0 | 0.0 | 0.0 | 0.00 | 0.29 | 0.07 | 91 | 1010.2 |
| 20260506021056 | 52 | 0 | 0.0 | 0.0 | 0.00 | 0.28 | 0.06 | 91 | 1010.2 |
| 20260506020557 | 52 | 0 | 0.0 | 0.0 | 0.00 | 0.28 | 0.06 | 91 | 1010.3 |
| 20260506020140 | 52 | 0 | 0.0 | 0.0 | 0.00 | 0.28 | 0.06 | 91 | 1010.4 |